HP11 MPEJ-MPEJ

Flight info

Callsign HP11
Flight time 0h 5m
Altitude 1100
Route LOCAL
Aircraft DA40/L-SG/C

Departure

Time 2026-04-21 23:13
Airport Enrique Adolfo Jimenez Airport (MPEJ)

Arrival

Time 2026-04-21 23:19
Airport Enrique Adolfo Jimenez Airport (MPEJ)
Time Latitude Longitude Altitude Speed Heading
2026-04-21 22:55 9.36021 -79.86508 29 ft 0 kts 287°
2026-04-21 23:03 9.36017 -79.86517 31 ft 7 kts 244°
2026-04-21 23:03 9.36006 -79.86557 29 ft 11 kts 221°
2026-04-21 23:03 9.35887 -79.86571 29 ft 24 kts 179°
2026-04-21 23:03 9.35685 -79.86577 30 ft 34 kts 182°
2026-04-21 23:04 9.35455 -79.86583 30 ft 26 kts 183°
2026-04-21 23:04 9.35371 -79.86627 30 ft 10 kts 268°
2026-04-21 23:04 9.35371 -79.86657 30 ft 0 kts 272°
2026-04-21 23:10 9.35372 -79.86674 30 ft 9 kts 272°
2026-04-21 23:10 9.35382 -79.86749 31 ft 9 kts 326°
2026-04-21 23:10 9.35399 -79.86751 31 ft 0 kts
2026-04-21 23:12 9.35591 -79.86744 30 ft 53 kts
2026-04-21 23:12 9.36053 -79.86745 129 ft 70 kts
2026-04-21 23:12 9.36536 -79.86726 295 ft 73 kts
2026-04-21 23:13 9.37042 -79.86712 465 ft 74 kts 359°
2026-04-21 23:13 9.37580 -79.86671 663 ft 79 kts
2026-04-21 23:13 9.38110 -79.86649 864 ft 78 kts 356°
2026-04-21 23:13 9.38431 -79.87080 925 ft 100 kts 268°
2026-04-21 23:14 9.38382 -79.87722 1102 ft 88 kts 271°
2026-04-21 23:14 9.38094 -79.88282 1029 ft 110 kts 210°
2026-04-21 23:14 9.37296 -79.88327 1049 ft 117 kts 181°
2026-04-21 23:14 9.36487 -79.88353 1068 ft 116 kts 183°
2026-04-21 23:15 9.35925 -79.88350 987 ft 123 kts 180°
2026-04-21 23:16 9.35591 -79.88341 999 ft 120 kts 180°
2026-04-21 23:16 9.35086 -79.88338 989 ft 121 kts 181°
2026-04-21 23:16 9.34277 -79.88360 972 ft 107 kts 185°
2026-04-21 23:17 9.33544 -79.88395 793 ft 105 kts 186°
2026-04-21 23:17 9.32852 -79.88297 721 ft 99 kts 137°
2026-04-21 23:17 9.32682 -79.87662 694 ft 89 kts 84°
2026-04-21 23:17 9.32799 -79.87066 582 ft 87 kts 37°
2026-04-21 23:18 9.33356 -79.86914 493 ft 78 kts 10°
2026-04-21 23:18 9.33891 -79.86833 321 ft 76 kts
2026-04-21 23:18 9.34407 -79.86796 170 ft 71 kts
2026-04-21 23:18 9.34885 -79.86768 36 ft 63 kts
2026-04-21 23:19 9.35248 -79.86751 30 ft 42 kts
2026-04-21 23:19 9.35496 -79.86747 31 ft 30 kts 360°
2026-04-21 23:19 9.35589 -79.86744 30 ft 27 kts
2026-04-21 23:20 9.35651 -79.86743 29 ft 0 kts
2026-04-21 23:20 9.35695 -79.86742 29 ft 26 kts
2026-04-21 23:21 9.36038 -79.86736 31 ft 70 kts
2026-04-21 23:21 9.36534 -79.86720 223 ft 68 kts
2026-04-21 23:21 9.37066 -79.86705 361 ft 77 kts 355°
2026-04-21 23:21 9.37613 -79.86686 566 ft 76 kts
2026-04-21 23:22 9.38216 -79.86700 675 ft 95 kts 360°
2026-04-21 23:22 9.38815 -79.86743 914 ft 86 kts 334°
2026-04-21 23:22 9.38979 -79.87376 912 ft 108 kts 267°
2026-04-21 23:22 9.38895 -79.88120 997 ft 107 kts 271°
2026-04-21 23:23 9.38359 -79.88600 956 ft 122 kts 181°
2026-04-21 23:23 9.37562 -79.88628 1123 ft 110 kts 180°
2026-04-21 23:23 9.36783 -79.88635 1170 ft 112 kts 182°
2026-04-21 23:23 9.35992 -79.88652 1101 ft 117 kts 186°
2026-04-21 23:24 9.35176 -79.88663 1123 ft 117 kts 180°
2026-04-21 23:24 9.34398 -79.88616 1198 ft 103 kts 177°
2026-04-21 23:24 9.33663 -79.88564 1037 ft 106 kts 178°
2026-04-21 23:24 9.32916 -79.88517 902 ft 109 kts 158°
2026-04-21 23:25 9.32587 -79.87940 842 ft 97 kts 92°
2026-04-21 23:25 9.32488 -79.87282 766 ft 93 kts 95°
2026-04-21 23:25 9.32624 -79.86910 728 ft 83 kts 28°
2026-04-21 23:25 9.32827 -79.86855 705 ft 81 kts
2026-04-21 23:26 9.33062 -79.86836 652 ft 83 kts
2026-04-21 23:26 9.33547 -79.86823 498 ft 74 kts
2026-04-21 23:26 9.34045 -79.86802 302 ft 72 kts 360°
2026-04-21 23:26 9.34531 -79.86784 165 ft 66 kts
2026-04-21 23:27 9.34977 -79.86764 37 ft 59 kts
2026-04-21 23:27 9.35294 -79.86753 31 ft 35 kts
2026-04-21 23:27 9.35468 -79.86749 31 ft 0 kts
2026-04-21 23:29 9.35539 -79.86745 31 ft 33 kts
2026-04-21 23:29 9.35906 -79.86731 29 ft 69 kts
2026-04-21 23:29 9.36402 -79.86736 158 ft 68 kts 358°
2026-04-21 23:30 9.36900 -79.86745 257 ft 72 kts
2026-04-21 23:30 9.37403 -79.86715 424 ft 68 kts
2026-04-21 23:30 9.37882 -79.86693 557 ft 75 kts
2026-04-21 23:30 9.38465 -79.86658 620 ft 85 kts
2026-04-21 23:31 9.39027 -79.86661 882 ft 77 kts 356°
2026-04-21 23:31 9.39335 -79.87070 948 ft 94 kts 263°
2026-04-21 23:31 9.39241 -79.87732 1018 ft 96 kts 272°
2026-04-21 23:31 9.39061 -79.88296 1177 ft 91 kts 223°
2026-04-21 23:32 9.38390 -79.88365 1160 ft 104 kts 183°
2026-04-21 23:32 9.37677 -79.88404 1204 ft 105 kts 184°
2026-04-21 23:32 9.36938 -79.88403 1275 ft 105 kts 180°
2026-04-21 23:32 9.36189 -79.88425 1232 ft 111 kts 184°
2026-04-21 23:33 9.35386 -79.88440 1073 ft 120 kts 182°
2026-04-21 23:33 9.34559 -79.88426 1032 ft 110 kts 181°
2026-04-21 23:33 9.33817 -79.88427 882 ft 104 kts 181°
2026-04-21 23:33 9.33108 -79.88470 736 ft 98 kts 179°
2026-04-21 23:34 9.32667 -79.88057 632 ft 92 kts 87°
2026-04-21 23:34 9.32667 -79.87424 523 ft 88 kts 95°
2026-04-21 23:34 9.32791 -79.86880 370 ft 89 kts 21°
2026-04-21 23:34 9.33342 -79.86833 353 ft 74 kts
2026-04-21 23:35 9.33857 -79.86822 278 ft 71 kts
2026-04-21 23:35 9.34349 -79.86793 209 ft 69 kts
2026-04-21 23:35 9.34814 -79.86772 105 ft 66 kts
2026-04-21 23:35 9.35204 -79.86756 30 ft 44 kts
2026-04-21 23:36 9.35453 -79.86748 31 ft 30 kts
2026-04-21 23:36 9.35542 -79.86746 30 ft 0 kts
2026-04-21 23:37 9.35634 -79.86744 30 ft 38 kts
2026-04-21 23:37 9.36045 -79.86727 44 ft 75 kts
2026-04-21 23:38 9.36388 -79.86734 185 ft 73 kts 358°
2026-04-21 23:38 9.36928 -79.86723 349 ft 77 kts
2026-04-21 23:38 9.37456 -79.86713 609 ft 71 kts
2026-04-21 23:38 9.38002 -79.86699 741 ft 88 kts 359°
2026-04-21 23:39 9.38637 -79.86696 887 ft 87 kts 350°
2026-04-21 23:39 9.38921 -79.87191 1001 ft 101 kts 269°
2026-04-21 23:39 9.38874 -79.87885 1221 ft 90 kts 271°
2026-04-21 23:39 9.38423 -79.88331 1139 ft 119 kts 185°
2026-04-21 23:40 9.37596 -79.88358 1183 ft 119 kts 183°
2026-04-21 23:40 9.36749 -79.88362 1192 ft 122 kts 183°
2026-04-21 23:40 9.35876 -79.88383 1117 ft 126 kts 180°
2026-04-21 23:40 9.35018 -79.88397 1052 ft 120 kts 180°
2026-04-21 23:41 9.34195 -79.88397 979 ft 110 kts 185°
2026-04-21 23:41 9.33473 -79.88439 844 ft 103 kts 186°
2026-04-21 23:41 9.32800 -79.88312 741 ft 95 kts 139°
2026-04-21 23:41 9.32616 -79.87730 638 ft 90 kts 88°
2026-04-21 23:42 9.32592 -79.87103 606 ft 87 kts 87°
2026-04-21 23:42 9.32960 -79.86771 541 ft 77 kts 351°
2026-04-21 23:42 9.33477 -79.86817 381 ft 77 kts 359°
2026-04-21 23:42 9.33980 -79.86807 262 ft 76 kts
2026-04-21 23:43 9.34485 -79.86787 173 ft 69 kts
2026-04-21 23:43 9.34955 -79.86765 47 ft 64 kts
2026-04-21 23:43 9.35322 -79.86751 31 ft 43 kts
2026-04-21 23:43 9.35539 -79.86746 31 ft 1 kts
2026-04-21 23:49 9.35722 -79.86740 27 ft 51 kts
2026-04-21 23:49 9.36184 -79.86734 85 ft 75 kts
2026-04-21 23:49 9.36711 -79.86723 285 ft 72 kts 358°
2026-04-21 23:49 9.37221 -79.86741 520 ft 73 kts 356°
2026-04-21 23:50 9.37709 -79.86774 734 ft 73 kts 358°
2026-04-21 23:50 9.38250 -79.86816 913 ft 83 kts 339°
2026-04-21 23:50 9.38404 -79.87423 954 ft 109 kts 268°
2026-04-21 23:50 9.38321 -79.88095 1206 ft 87 kts 261°
2026-04-21 23:51 9.37802 -79.88486 1171 ft 111 kts 187°
2026-04-21 23:51 9.36974 -79.88533 1146 ft 121 kts 179°
2026-04-21 23:51 9.36158 -79.88564 1232 ft 118 kts 185°
2026-04-21 23:51 9.35299 -79.88562 1076 ft 127 kts 179°
2026-04-21 23:52 9.34427 -79.88558 1066 ft 121 kts 185°
2026-04-21 23:52 9.33641 -79.88575 1023 ft 109 kts 181°
2026-04-21 23:52 9.32893 -79.88511 801 ft 109 kts 142°
2026-04-21 23:52 9.32638 -79.87923 782 ft 88 kts 92°
2026-04-21 23:53 9.32617 -79.87282 662 ft 89 kts 80°
2026-04-21 23:53 9.33037 -79.86903 593 ft 77 kts 11°
2026-04-21 23:53 9.33541 -79.86833 421 ft 73 kts
2026-04-21 23:53 9.34047 -79.86806 268 ft 71 kts
2026-04-21 23:54 9.34531 -79.86783 145 ft 68 kts
2026-04-21 23:54 9.34986 -79.86763 37 ft 59 kts
2026-04-21 23:54 9.35332 -79.86750 31 ft 42 kts
2026-04-21 23:54 9.35699 -79.86742 39 ft 70 kts
2026-04-21 23:55 9.36073 -79.86734 155 ft 73 kts
2026-04-21 23:56 9.36579 -79.86729 235 ft 84 kts
2026-04-21 23:56 9.37129 -79.86719 522 ft 76 kts 358°
2026-04-21 23:56 9.37706 -79.86727 638 ft 91 kts
2026-04-21 23:56 9.38325 -79.86737 908 ft 87 kts 348°
2026-04-21 23:57 9.38618 -79.87281 896 ft 110 kts 265°
2026-04-21 23:57 9.38559 -79.88031 1020 ft 105 kts 270°
2026-04-21 23:57 9.38229 -79.88635 1195 ft 106 kts 205°
2026-04-21 23:57 9.37453 -79.88636 1179 ft 115 kts 175°
2026-04-21 23:58 9.36668 -79.88593 1296 ft 112 kts 182°
2026-04-21 23:58 9.36507 -79.88606 1308 ft 113 kts 189°
2026-04-21 23:58 9.35681 -79.88590 1179 ft 127 kts 177°
2026-04-21 23:58 9.34812 -79.88604 1144 ft 121 kts 182°
2026-04-21 23:59 9.34037 -79.88635 1087 ft 109 kts 184°
2026-04-21 23:59 9.33270 -79.88656 881 ft 110 kts 182°
2026-04-21 23:59 9.32633 -79.88358 784 ft 95 kts 118°
2026-04-21 23:59 9.32514 -79.87724 665 ft 92 kts 87°
2026-04-22 00:00 9.32516 -79.87091 594 ft 89 kts 63°
2026-04-22 00:00 9.33036 -79.86861 513 ft 77 kts
2026-04-22 00:00 9.33572 -79.86824 333 ft 77 kts
2026-04-22 00:00 9.34085 -79.86809 244 ft 71 kts
2026-04-22 00:01 9.34566 -79.86780 135 ft 69 kts
2026-04-22 00:01 9.35031 -79.86764 45 ft 63 kts
2026-04-22 00:01 9.35410 -79.86754 31 ft 39 kts 331°
2026-04-22 00:01 9.35659 -79.86776 29 ft 30 kts 328°
2026-04-22 00:02 9.35719 -79.86826 29 ft 11 kts 45°
2026-04-22 00:02 9.35860 -79.86740 30 ft 28 kts
2026-04-22 00:02 9.35962 -79.86733 29 ft 11 kts
2026-04-22 00:02 9.35998 -79.86732 29 ft 0 kts 359°
2026-04-22 00:03 9.35563 -79.86745 30 ft 20 kts
2026-04-22 00:04 9.35871 -79.86736 33 ft 64 kts
2026-04-22 00:04 9.36376 -79.86724 142 ft 76 kts
2026-04-22 00:04 9.36893 -79.86728 381 ft 72 kts 359°
2026-04-22 00:04 9.37400 -79.86747 625 ft 68 kts 359°
2026-04-22 00:05 9.37899 -79.86775 794 ft 78 kts
2026-04-22 00:05 9.38406 -79.86961 929 ft 96 kts 304°
2026-04-22 00:05 9.38370 -79.87689 1046 ft 100 kts 268°
2026-04-22 00:05 9.38222 -79.88303 1211 ft 98 kts 234°
2026-04-22 00:06 9.37516 -79.88522 1128 ft 119 kts 187°
2026-04-22 00:06 9.36678 -79.88532 1203 ft 117 kts 181°
2026-04-22 00:06 9.35863 -79.88570 1188 ft 121 kts 181°
2026-04-22 00:06 9.34984 -79.88550 1060 ft 126 kts 178°
2026-04-22 00:07 9.34134 -79.88571 1067 ft 113 kts 185°
2026-04-22 00:07 9.33372 -79.88592 947 ft 110 kts 186°
2026-04-22 00:07 9.32727 -79.88317 793 ft 100 kts 113°
2026-04-22 00:07 9.32624 -79.87692 694 ft 93 kts 87°
2026-04-22 00:08 9.32708 -79.87078 615 ft 88 kts 46°
2026-04-22 00:08 9.33218 -79.86874 578 ft 70 kts
2026-04-22 00:08 9.33716 -79.86821 355 ft 72 kts
2026-04-22 00:08 9.34218 -79.86804 237 ft 70 kts
2026-04-22 00:09 9.34696 -79.86771 94 ft 67 kts
2026-04-22 00:09 9.35122 -79.86757 32 ft 52 kts
2026-04-22 00:09 9.35365 -79.86749 31 ft 44 kts 359°
2026-04-22 00:09 9.35186 -79.86751 30 ft 48 kts
2026-04-22 00:10 9.34760 -79.86769 93 ft 67 kts
2026-04-22 00:10 9.35202 -79.86756 37 ft 57 kts
2026-04-22 00:10 9.38711 -79.86706 907 ft 81 kts 349°
2026-04-22 00:10 9.35472 -79.86748 30 ft 27 kts
2026-04-22 00:11 9.32592 -79.87990 882 ft 98 kts 89°
2026-04-22 00:11 9.35042 -79.86761 31 ft 54 kts
2026-04-22 00:11 9.34958 -79.86769 56 ft 61 kts
2026-04-22 00:11 9.34909 -79.86765 54 ft 66 kts
2026-04-22 00:12 9.35291 -79.86752 31 ft 45 kts
2026-04-22 00:12 9.35533 -79.86746 28 ft 13 kts
2026-04-22 00:12 9.34839 -79.86769 60 ft 65 kts
2026-04-22 00:12 9.35229 -79.86750 28 ft 46 kts 359°
2026-04-22 00:13 9.34967 -79.86765 50 ft 64 kts
2026-04-22 00:13 9.35365 -79.86749 32 ft 48 kts
2026-04-22 00:13 9.35710 -79.86740 32 ft 50 kts
2026-04-22 00:13 9.36167 -79.86734 75 ft 75 kts
2026-04-22 00:14 9.35074 -79.86759 28 ft 55 kts
2026-04-22 00:14 9.34972 -79.86764 37 ft 60 kts
2026-04-22 00:14 9.34989 -79.86763 34 ft 59 kts
2026-04-22 00:14 9.35334 -79.86750 31 ft 42 kts
2026-04-22 00:15 9.34527 -79.86783 143 ft 68 kts
2026-04-22 00:15 9.34983 -79.86763 34 ft 60 kts
2026-04-22 00:15 9.35330 -79.86751 31 ft 42 kts
2026-04-22 00:15 9.35998 -79.86732 26 ft 0 kts 360°